contact:dominique.lefevre@mio.osupytheas.fr, maurice.libes@osupytheas.fr, didier.mallarino@osupytheas.fr
Project:EMSO http://www.emso-fr.org/EMSO-France
Depth: 2436.0 m
Title:EMSO Ligure Ouest : Data MII capteur MICROCAT
DateTime_Computer,Latitude,Longitude,Temperature,Conductivity,Pressure,DateTime_Instrument
DateTime_Computer,Latitude,Longitude,degC,S m-1,dbar,DateTime_Instrument
2021-05-04T00:00:05Z,42.805,6.029,13.2984,4.59990,2470.087,2021-5-04T02:01:15Z
2021-05-04T00:03:08Z,42.805,6.029,13.2988,4.59990,2470.11,2021-5-04T02:04:19Z
2021-05-04T00:06:12Z,42.805,6.029,13.2982,4.59989,2470.1,2021-5-04T02:07:22Z
2021-05-04T00:09:15Z,42.805,6.029,13.2983,4.59991,2470.087,2021-5-04T02:10:25Z
2021-05-04T00:12:18Z,42.805,6.029,13.2983,4.59993,2470.063,2021-5-04T02:13:28Z
2021-05-04T00:15:21Z,42.805,6.029,13.2986,4.59991,2470.1,2021-5-04T02:16:31Z
2021-05-04T00:18:24Z,42.805,6.029,13.2990,4.59994,2470.063,2021-5-04T02:19:34Z
2021-05-04T00:21:27Z,42.805,6.029,13.2986,4.59991,2470.11,2021-5-04T02:22:37Z
2021-05-04T00:24:30Z,42.805,6.029,13.2983,4.59991,2470.087,2021-5-04T02:25:40Z
2021-05-04T00:27:33Z,42.805,6.029,13.2985,4.59989,2470.11,2021-5-04T02:28:43Z
2021-05-04T00:30:36Z,42.805,6.029,13.2987,4.59992,2470.077,2021-5-04T02:31:47Z
2021-05-04T00:33:40Z,42.805,6.029,13.2983,4.59991,2470.11,2021-5-04T02:34:50Z
2021-05-04T00:36:43Z,42.805,6.029,13.2986,4.59992,2470.1,2021-5-04T02:37:53Z
2021-05-04T00:39:46Z,42.805,6.029,13.2988,4.59992,2470.087,2021-5-04T02:40:56Z
2021-05-04T00:42:49Z,42.805,6.029,13.2989,4.59991,2470.11,2021-5-04T02:43:59Z
2021-05-04T00:45:52Z,42.805,6.029,13.2986,4.59991,2470.133,2021-5-04T02:47:02Z
2021-05-04T00:48:55Z,42.805,6.029,13.2985,4.59991,2470.087,2021-5-04T02:50:05Z
2021-05-04T00:51:58Z,42.805,6.029,13.2988,4.59992,2470.087,2021-5-04T02:53:08Z
2021-05-04T00:55:01Z,42.805,6.029,13.2987,4.59992,2470.087,2021-5-04T02:56:12Z
2021-05-04T00:58:05Z,42.805,6.029,13.2983,4.59989,2470.11,2021-5-04T02:59:15Z
2021-05-04T01:01:08Z,42.805,6.029,13.2982,4.59991,2470.11,2021-5-04T03:02:18Z
2021-05-04T01:04:11Z,42.805,6.029,13.2984,4.59991,2470.133,2021-5-04T03:05:21Z
2021-05-04T01:07:14Z,42.805,6.029,13.2984,4.59991,2470.147,2021-5-04T03:08:24Z
2021-05-04T01:10:17Z,42.805,6.029,13.2987,4.59991,2470.133,2021-5-04T03:11:27Z
2021-05-04T01:13:20Z,42.805,6.029,13.2985,4.59991,2470.11,2021-5-04T03:14:30Z
2021-05-04T01:16:23Z,42.805,6.029,13.2985,4.59991,2470.147,2021-5-04T03:17:33Z
2021-05-04T01:19:26Z,42.805,6.029,13.2986,4.59990,2470.124,2021-5-04T03:20:36Z
2021-05-04T01:22:29Z,42.805,6.029,13.2984,4.59991,2470.11,2021-5-04T03:23:40Z
2021-05-04T01:25:33Z,42.805,6.029,13.2985,4.59992,2470.147,2021-5-04T03:26:43Z
2021-05-04T01:28:36Z,42.805,6.029,13.2984,4.59991,2470.133,2021-5-04T03:29:46Z
2021-05-04T01:31:39Z,42.805,6.029,13.2986,4.59991,2470.124,2021-5-04T03:32:49Z
2021-05-04T01:34:42Z,42.805,6.029,13.2982,4.59990,2470.087,2021-5-04T03:35:52Z
2021-05-04T01:37:45Z,42.805,6.029,13.2983,4.59991,2470.11,2021-5-04T03:38:55Z
2021-05-04T01:40:48Z,42.805,6.029,13.2985,4.59993,2470.147,2021-5-04T03:41:58Z
2021-05-04T01:43:51Z,42.805,6.029,13.2985,4.59991,2470.11,2021-5-04T03:45:01Z
2021-05-04T01:46:54Z,42.805,6.029,13.2984,4.59992,2470.133,2021-5-04T03:48:05Z
2021-05-04T01:49:58Z,42.805,6.029,13.2988,4.59991,2470.11,2021-5-04T03:51:08Z
2021-05-04T01:53:01Z,42.805,6.029,13.2986,4.59991,2470.147,2021-5-04T03:54:11Z
2021-05-04T01:56:04Z,42.805,6.029,13.2984,4.59991,2470.11,2021-5-04T03:57:14Z
2021-05-04T01:59:07Z,42.805,6.029,13.2986,4.59991,2470.147,2021-5-04T04:00:17Z
2021-05-04T02:02:10Z,42.805,6.029,13.2988,4.59991,2470.147,2021-5-04T04:03:20Z
2021-05-04T02:05:13Z,42.805,6.029,13.2990,4.59990,2470.096,2021-5-04T04:06:23Z
2021-05-04T02:08:16Z,42.805,6.029,13.2985,4.59991,2470.133,2021-5-04T04:09:26Z
2021-05-04T02:11:19Z,42.805,6.029,13.2985,4.59991,2470.133,2021-5-04T04:12:29Z
2021-05-04T02:14:22Z,42.805,6.029,13.2988,4.59991,2470.147,2021-5-04T04:15:33Z
2021-05-04T02:17:26Z,42.805,6.029,13.2981,4.59991,2470.133,2021-5-04T04:18:36Z
2021-05-04T02:20:29Z,42.805,6.029,13.2985,4.59993,2470.171,2021-5-04T04:21:39Z
2021-05-04T02:23:32Z,42.805,6.029,13.2985,4.59991,2470.171,2021-5-04T04:24:42Z
2021-05-04T02:26:35Z,42.805,6.029,13.2989,4.59990,2470.133,2021-5-04T04:27:45Z
2021-05-04T02:29:38Z,42.805,6.029,13.2983,4.59991,2470.133,2021-5-04T04:30:48Z
2021-05-04T02:32:41Z,42.805,6.029,13.2984,4.59991,2470.124,2021-5-04T04:33:51Z
2021-05-04T02:35:44Z,42.805,6.029,13.2982,4.59991,2470.11,2021-5-04T04:36:54Z
2021-05-04T02:38:47Z,42.805,6.029,13.2982,4.59992,2470.124,2021-5-04T04:39:58Z
2021-05-04T02:41:51Z,42.805,6.029,13.2986,4.59991,2470.133,2021-5-04T04:43:01Z
2021-05-04T02:44:54Z,42.805,6.029,13.2981,4.59991,2470.073,2021-5-04T04:46:04Z
2021-05-04T02:47:57Z,42.805,6.029,13.2983,4.59992,2470.133,2021-5-04T04:49:07Z
2021-05-04T02:51:00Z,42.805,6.029,13.2984,4.59991,2470.156,2021-5-04T04:52:10Z
2021-05-04T02:54:03Z,42.805,6.029,13.2983,4.59989,2470.171,2021-5-04T04:55:13Z
2021-05-04T02:57:06Z,42.805,6.029,13.2986,4.59990,2470.156,2021-5-04T04:58:16Z
2021-05-04T03:00:09Z,42.805,6.029,13.2983,4.59989,2470.11,2021-5-04T05:01:19Z
2021-05-04T03:03:12Z,42.805,6.029,13.2985,4.59990,2470.11,2021-5-04T05:04:22Z
2021-05-04T03:06:15Z,42.805,6.029,13.2986,4.59990,2470.124,2021-5-04T05:07:26Z
2021-05-04T03:09:19Z,42.805,6.029,13.2983,4.59993,2470.156,2021-5-04T05:10:29Z
2021-05-04T03:12:22Z,42.805,6.029,13.2986,4.59991,2470.133,2021-5-04T05:13:32Z
2021-05-04T03:15:25Z,42.805,6.029,13.2981,4.59991,2470.119,2021-5-04T05:16:35Z
2021-05-04T03:18:28Z,42.805,6.029,13.2986,4.59991,2470.147,2021-5-04T05:19:38Z
2021-05-04T03:21:31Z,42.805,6.029,13.2984,4.59991,2470.133,2021-5-04T05:22:41Z
2021-05-04T03:24:34Z,42.805,6.029,13.2986,4.59991,2470.087,2021-5-04T05:25:44Z
2021-05-04T03:27:37Z,42.805,6.029,13.2984,4.59990,2470.156,2021-5-04T05:28:47Z
2021-05-04T03:30:40Z,42.805,6.029,13.2987,4.59990,2470.147,2021-5-04T05:31:51Z
2021-05-04T03:33:43Z,42.805,6.029,13.2985,4.59991,2470.18,2021-5-04T05:34:54Z
2021-05-04T03:36:47Z,42.805,6.029,13.2986,4.59991,2470.147,2021-5-04T05:37:57Z
2021-05-04T03:39:50Z,42.805,6.029,13.2987,4.59990,2470.11,2021-5-04T05:41:00Z
2021-05-04T03:42:53Z,42.805,6.029,13.2983,4.59991,2470.133,2021-5-04T05:44:03Z
2021-05-04T03:45:56Z,42.805,6.029,13.2981,4.59990,2470.147,2021-5-04T05:47:06Z
2021-05-04T03:48:59Z,42.805,6.029,13.2983,4.59991,2470.124,2021-5-04T05:50:09Z
2021-05-04T03:52:02Z,42.805,6.029,13.2983,4.59990,2470.156,2021-5-04T05:53:12Z
2021-05-04T03:55:05Z,42.805,6.029,13.2983,4.59990,2470.11,2021-5-04T05:56:15Z
2021-05-04T03:58:08Z,42.805,6.029,13.2983,4.59989,2470.133,2021-5-04T05:59:19Z
2021-05-04T04:01:12Z,42.805,6.029,13.2983,4.59991,2470.124,2021-5-04T06:02:22Z
2021-05-04T04:04:15Z,42.805,6.029,13.2984,4.59990,2470.133,2021-5-04T06:05:25Z
2021-05-04T04:07:18Z,42.805,6.029,13.2984,4.59988,2470.11,2021-5-04T06:08:28Z
2021-05-04T04:10:21Z,42.805,6.029,13.2982,4.59989,2470.096,2021-5-04T06:11:31Z
2021-05-04T04:13:24Z,42.805,6.029,13.2985,4.59990,2470.133,2021-5-04T06:14:34Z
2021-05-04T04:16:27Z,42.805,6.029,13.2985,4.59988,2470.124,2021-5-04T06:17:37Z
2021-05-04T04:19:30Z,42.805,6.029,13.2984,4.59991,2470.124,2021-5-04T06:20:40Z
2021-05-04T04:22:33Z,42.805,6.029,13.2983,4.59990,2470.133,2021-5-04T06:23:43Z
2021-05-04T04:25:36Z,42.805,6.029,13.2986,4.59991,2470.11,2021-5-04T06:26:47Z
2021-05-04T04:28:40Z,42.805,6.029,13.2983,4.59989,2470.11,2021-5-04T06:29:50Z
2021-05-04T04:31:43Z,42.805,6.029,13.2983,4.59989,2470.1,2021-5-04T06:32:53Z
2021-05-04T04:34:46Z,42.805,6.029,13.2985,4.59989,2470.133,2021-5-04T06:35:56Z
2021-05-04T04:37:49Z,42.805,6.029,13.2986,4.59989,2470.11,2021-5-04T06:38:59Z
2021-05-04T04:40:52Z,42.805,6.029,13.2986,4.59989,2470.087,2021-5-04T06:42:02Z
2021-05-04T04:43:55Z,42.805,6.029,13.2982,4.59990,2470.1,2021-5-04T06:45:05Z
2021-05-04T04:46:58Z,42.805,6.029,13.2982,4.59989,2470.124,2021-5-04T06:48:08Z
2021-05-04T04:50:01Z,42.805,6.029,13.2986,4.59989,2470.124,2021-5-04T06:51:12Z
2021-05-04T04:53:05Z,42.805,6.029,13.2981,4.59989,2470.133,2021-5-04T06:54:15Z
2021-05-04T04:56:08Z,42.805,6.029,13.2984,4.59988,2470.11,2021-5-04T06:57:18Z
2021-05-04T04:59:11Z,42.805,6.029,13.2986,4.59989,2470.133,2021-5-04T07:00:21Z
2021-05-04T05:02:14Z,42.805,6.029,13.2986,4.59988,2470.096,2021-5-04T07:03:24Z
2021-05-04T05:05:17Z,42.805,6.029,13.2983,4.59988,2470.11,2021-5-04T07:06:27Z
2021-05-04T05:08:20Z,42.805,6.029,13.2986,4.59988,2470.124,2021-5-04T07:09:30Z
2021-05-04T05:33:08Z,42.805,6.029,13.2984,4.59989,2470.087,2021-5-04T07:34:18Z
2021-05-04T05:36:11Z,42.805,6.029,13.2983,4.59988,2470.087,2021-5-04T07:37:22Z
2021-05-04T05:39:15Z,42.805,6.029,13.2986,4.59988,2470.124,2021-5-04T07:40:25Z
2021-05-04T05:42:18Z,42.805,6.029,13.2983,4.59989,2470.087,2021-5-04T07:43:28Z
2021-05-04T05:45:21Z,42.805,6.029,13.2982,4.59988,2470.124,2021-5-04T07:46:31Z
2021-05-04T05:48:24Z,42.805,6.029,13.2983,4.59988,2470.124,2021-5-04T07:49:34Z
2021-05-04T05:51:27Z,42.805,6.029,13.2988,4.59988,2470.087,2021-5-04T07:52:37Z
2021-05-04T05:54:30Z,42.805,6.029,13.2984,4.59990,2470.124,2021-5-04T07:55:40Z
2021-05-04T05:57:33Z,42.805,6.029,13.2984,4.59988,2470.087,2021-5-04T07:58:43Z
2021-05-04T06:00:36Z,42.805,6.029,13.2985,4.59988,2470.087,2021-5-04T08:01:47Z
2021-05-04T06:03:40Z,42.805,6.029,13.2981,4.59989,2470.11,2021-5-04T08:04:50Z
2021-05-04T06:06:43Z,42.805,6.029,13.2982,4.59989,2470.096,2021-5-04T08:07:53Z
2021-05-04T06:09:46Z,42.805,6.029,13.2984,4.59989,2470.11,2021-5-04T08:10:56Z
2021-05-04T06:12:49Z,42.805,6.029,13.2983,4.59988,2470.077,2021-5-04T08:13:59Z
2021-05-04T06:15:52Z,42.805,6.029,13.2983,4.59988,2470.124,2021-5-04T08:17:02Z
2021-05-04T06:18:55Z,42.805,6.029,13.2986,4.59988,2470.087,2021-5-04T08:20:05Z
2021-05-04T06:21:58Z,42.805,6.029,13.2983,4.59988,2470.1,2021-5-04T08:23:08Z
2021-05-04T06:25:01Z,42.805,6.029,13.2984,4.59988,2470.11,2021-5-04T08:26:11Z
2021-05-04T06:28:04Z,42.805,6.029,13.2986,4.59989,2470.087,2021-5-04T08:29:15Z
2021-05-04T06:31:08Z,42.805,6.029,13.2987,4.59988,2470.063,2021-5-04T08:32:18Z
2021-05-04T06:34:11Z,42.805,6.029,13.2987,4.59988,2470.063,2021-5-04T08:35:21Z
2021-05-04T06:37:14Z,42.805,6.029,13.2981,4.59989,2470.04,2021-5-04T08:38:24Z
2021-05-04T06:40:17Z,42.805,6.029,13.2985,4.59988,2470.087,2021-5-04T08:41:27Z
2021-05-04T06:43:20Z,42.805,6.029,13.2986,4.59988,2470.1,2021-5-04T08:44:30Z
2021-05-04T06:46:23Z,42.805,6.029,13.2986,4.59989,2470.077,2021-5-04T08:47:33Z
2021-05-04T06:49:26Z,42.805,6.029,13.2986,4.59989,2470.1,2021-5-04T08:50:36Z
2021-05-04T06:52:29Z,42.805,6.029,13.2984,4.59988,2470.063,2021-5-04T08:53:40Z
2021-05-04T06:55:33Z,42.805,6.029,13.2983,4.59988,2470.087,2021-5-04T08:56:43Z
2021-05-04T06:58:36Z,42.805,6.029,13.2982,4.59988,2470.053,2021-5-04T08:59:46Z
2021-05-04T07:01:39Z,42.805,6.029,13.2983,4.59988,2470.087,2021-5-04T09:02:49Z
2021-05-04T07:04:42Z,42.805,6.029,13.2986,4.59988,2470.063,2021-5-04T09:05:52Z
2021-05-04T07:07:45Z,42.805,6.029,13.2986,4.59988,2470.1,2021-5-04T09:08:55Z
2021-05-04T07:10:48Z,42.805,6.029,13.2984,4.59988,2470.124,2021-5-04T09:11:58Z
2021-05-04T07:13:51Z,42.805,6.029,13.2979,4.59988,2470.04,2021-5-04T09:15:01Z
2021-05-04T07:16:54Z,42.805,6.029,13.2984,4.59988,2470.053,2021-5-04T09:18:04Z
2021-05-04T07:19:57Z,42.805,6.029,13.2985,4.59988,2470.04,2021-5-04T09:21:08Z
2021-05-04T07:23:01Z,42.805,6.029,13.2986,4.59987,2470.077,2021-5-04T09:24:11Z
2021-05-04T07:26:04Z,42.805,6.029,13.2985,4.59988,2470.087,2021-5-04T09:27:14Z
2021-05-04T07:29:07Z,42.805,6.029,13.2986,4.59989,2470.077,2021-5-04T09:30:17Z
2021-05-04T07:32:10Z,42.805,6.029,13.2984,4.59988,2470.063,2021-5-04T09:33:20Z
2021-05-04T07:35:13Z,42.805,6.029,13.2986,4.59988,2470.04,2021-5-04T09:36:23Z
2021-05-04T07:38:16Z,42.805,6.029,13.2989,4.59988,2470.087,2021-5-04T09:39:26Z
2021-05-04T07:41:19Z,42.805,6.029,13.2989,4.59989,2470.053,2021-5-04T09:42:29Z
2021-05-04T07:44:22Z,42.805,6.029,13.2987,4.59988,2470.077,2021-5-04T09:45:33Z
2021-05-04T07:47:26Z,42.805,6.029,13.2985,4.59987,2470.04,2021-5-04T09:48:36Z
2021-05-04T07:50:29Z,42.805,6.029,13.2982,4.59987,2470.04,2021-5-04T09:51:39Z
2021-05-04T07:53:32Z,42.805,6.029,13.2985,4.59988,2470.063,2021-5-04T09:54:42Z
2021-05-04T07:56:35Z,42.805,6.029,13.2983,4.59988,2470.053,2021-5-04T09:57:45Z
2021-05-04T07:59:38Z,42.805,6.029,13.2982,4.59988,2470.04,2021-5-04T10:00:48Z
2021-05-04T08:02:41Z,42.805,6.029,13.2983,4.59988,2470.053,2021-5-04T10:03:51Z
2021-05-04T08:05:44Z,42.805,6.029,13.2986,4.59988,2470.087,2021-5-04T10:06:54Z
2021-05-04T08:08:47Z,42.805,6.029,13.2984,4.59988,2470.04,2021-5-04T10:09:57Z
2021-05-04T08:11:50Z,42.805,6.029,13.2986,4.59988,2470.077,2021-5-04T10:13:01Z
2021-05-04T08:14:54Z,42.805,6.029,13.2983,4.59988,2470.087,2021-5-04T10:16:04Z
2021-05-04T08:17:57Z,42.805,6.029,13.2985,4.59988,2470.053,2021-5-04T10:19:07Z
2021-05-04T08:21:00Z,42.805,6.029,13.2985,4.59990,2470.1,2021-5-04T10:22:10Z
2021-05-04T08:24:03Z,42.805,6.029,13.2985,4.59988,2470.04,2021-5-04T10:25:13Z
2021-05-04T08:27:06Z,42.805,6.029,13.2982,4.59989,2470.087,2021-5-04T10:28:16Z
2021-05-04T08:30:09Z,42.805,6.029,13.2983,4.59990,2470.04,2021-5-04T10:31:19Z
2021-05-04T08:33:12Z,42.805,6.029,13.2984,4.59988,2470.04,2021-5-04T10:34:22Z
2021-05-04T08:36:15Z,42.805,6.029,13.2986,4.59988,2470.017,2021-5-04T10:37:26Z
2021-05-04T08:39:19Z,42.805,6.029,13.2984,4.59988,2470.04,2021-5-04T10:40:29Z
2021-05-04T08:42:22Z,42.805,6.029,13.2983,4.59988,2470.077,2021-5-04T10:43:32Z
2021-05-04T08:45:25Z,42.805,6.029,13.2983,4.59988,2470.04,2021-5-04T10:46:35Z
2021-05-04T08:48:28Z,42.805,6.029,13.2986,4.59989,2470.053,2021-5-04T10:49:38Z
2021-05-04T08:51:31Z,42.805,6.029,13.2983,4.59988,2470.04,2021-5-04T10:52:41Z
2021-05-04T08:54:34Z,42.805,6.029,13.2983,4.59988,2470.007,2021-5-04T10:55:44Z
2021-05-04T08:57:37Z,42.805,6.029,13.2986,4.59988,2470.04,2021-5-04T10:58:47Z
2021-05-04T09:00:40Z,42.805,6.029,13.2986,4.59988,2470.077,2021-5-04T11:01:51Z
2021-05-04T09:03:44Z,42.805,6.029,13.2985,4.59988,2470.077,2021-5-04T11:04:54Z
2021-05-04T09:06:47Z,42.805,6.029,13.2986,4.59989,2470.053,2021-5-04T11:07:57Z
2021-05-04T09:09:50Z,42.805,6.029,13.2982,4.59989,2470.04,2021-5-04T11:11:00Z
2021-05-04T09:12:53Z,42.805,6.029,13.2983,4.59988,2470.063,2021-5-04T11:14:03Z
2021-05-04T09:15:56Z,42.805,6.029,13.2984,4.59988,2470.077,2021-5-04T11:17:06Z
2021-05-04T09:18:59Z,42.805,6.029,13.2984,4.59986,2470.077,2021-5-04T11:20:09Z
2021-05-04T09:22:02Z,42.805,6.029,13.2985,4.59989,2470.053,2021-5-04T11:23:12Z
2021-05-04T09:25:05Z,42.805,6.029,13.2982,4.59987,2470.04,2021-5-04T11:26:16Z
2021-05-04T09:28:09Z,42.805,6.029,13.2983,4.59986,2470.077,2021-5-04T11:29:19Z
2021-05-04T09:31:12Z,42.805,6.029,13.2981,4.59987,2470.077,2021-5-04T11:32:22Z
2021-05-04T09:34:15Z,42.805,6.029,13.2982,4.59987,2470.11,2021-5-04T11:35:25Z
2021-05-04T09:37:18Z,42.805,6.029,13.2984,4.59987,2470.1,2021-5-04T11:38:28Z
2021-05-04T09:40:21Z,42.805,6.029,13.2984,4.59988,2470.087,2021-5-04T11:41:31Z
2021-05-04T09:43:24Z,42.805,6.029,13.2983,4.59987,2470.063,2021-5-04T11:44:34Z
2021-05-04T09:46:27Z,42.805,6.029,13.2986,4.59988,2470.063,2021-5-04T11:47:37Z
2021-05-04T09:49:30Z,42.805,6.029,13.2985,4.59987,2470.077,2021-5-04T11:50:41Z
2021-05-04T09:52:34Z,42.805,6.029,13.2985,4.59989,2470.087,2021-5-04T11:53:44Z
2021-05-04T09:55:37Z,42.805,6.029,13.2985,4.59987,2470.053,2021-5-04T11:56:47Z
2021-05-04T09:58:40Z,42.805,6.029,13.2982,4.59988,2470.077,2021-5-04T11:59:50Z
2021-05-04T10:01:43Z,42.805,6.029,13.2983,4.59988,2470.053,2021-5-04T12:02:53Z
2021-05-04T10:04:46Z,42.805,6.029,13.2982,4.59988,2470.077,2021-5-04T12:05:56Z
2021-05-04T10:07:49Z,42.805,6.029,13.2982,4.59988,2470.087,2021-5-04T12:08:59Z
2021-05-04T10:10:52Z,42.805,6.029,13.2983,4.59988,2470.077,2021-5-04T12:12:02Z
2021-05-04T10:13:55Z,42.805,6.029,13.2986,4.59988,2470.077,2021-5-04T12:15:06Z
2021-05-04T10:16:58Z,42.805,6.029,13.2986,4.59989,2470.063,2021-5-04T12:18:09Z
2021-05-04T10:20:02Z,42.805,6.029,13.2982,4.59988,2470.077,2021-5-04T12:21:12Z
2021-05-04T10:23:05Z,42.805,6.029,13.2983,4.59986,2470.04,2021-5-04T12:24:15Z
2021-05-04T10:26:08Z,42.805,6.029,13.2986,4.59988,2470.087,2021-5-04T12:27:18Z
2021-05-04T10:29:11Z,42.805,6.029,13.2982,4.59987,2470.063,2021-5-04T12:30:21Z
2021-05-04T10:32:14Z,42.805,6.029,13.2982,4.59990,2470.087,2021-5-04T12:33:24Z
2021-05-04T10:35:17Z,42.805,6.029,13.2982,4.59989,2470.1,2021-5-04T12:36:27Z
2021-05-04T10:38:20Z,42.805,6.029,13.2983,4.59988,2470.087,2021-5-04T12:39:30Z
2021-05-04T10:41:23Z,42.805,6.029,13.2986,4.59988,2470.087,2021-5-04T12:42:34Z
2021-05-04T10:44:27Z,42.805,6.029,13.2981,4.59988,2470.077,2021-5-04T12:45:37Z
2021-05-04T10:47:30Z,42.805,6.029,13.2981,4.59987,2470.063,2021-5-04T12:48:40Z
2021-05-04T10:50:33Z,42.805,6.029,13.2982,4.59990,2470.11,2021-5-04T12:51:43Z
2021-05-04T10:53:36Z,42.805,6.029,13.2983,4.59989,2470.1,2021-5-04T12:54:46Z
2021-05-04T10:56:39Z,42.805,6.029,13.2984,4.59987,2470.087,2021-5-04T12:57:49Z
2021-05-04T10:59:42Z,42.805,6.029,13.2983,4.59989,2470.077,2021-5-04T13:00:52Z
2021-05-04T11:02:45Z,42.805,6.029,13.2982,4.59987,2470.11,2021-5-04T13:03:55Z
2021-05-04T11:05:48Z,42.805,6.029,13.2984,4.59988,2470.087,2021-5-04T13:06:59Z
2021-05-04T11:08:52Z,42.805,6.029,13.2983,4.59987,2470.087,2021-5-04T13:10:02Z
2021-05-04T11:11:55Z,42.805,6.029,13.2982,4.59987,2470.063,2021-5-04T13:13:05Z
2021-05-04T11:14:58Z,42.805,6.029,13.2983,4.59988,2470.11,2021-5-04T13:16:08Z
2021-05-04T11:18:01Z,42.805,6.029,13.2982,4.59988,2470.147,2021-5-04T13:19:11Z
2021-05-04T11:21:04Z,42.805,6.029,13.2983,4.59989,2470.087,2021-5-04T13:22:14Z
2021-05-04T11:24:07Z,42.805,6.029,13.2983,4.59988,2470.124,2021-5-04T13:25:17Z
2021-05-04T11:27:10Z,42.805,6.029,13.2983,4.59988,2470.087,2021-5-04T13:28:20Z
2021-05-04T11:30:13Z,42.805,6.029,13.2983,4.59989,2470.077,2021-5-04T13:31:24Z
2021-05-04T11:33:17Z,42.805,6.029,13.2983,4.59989,2470.11,2021-5-04T13:34:27Z
2021-05-04T11:36:20Z,42.805,6.029,13.2985,4.59988,2470.11,2021-5-04T13:37:30Z
2021-05-04T11:39:23Z,42.805,6.029,13.2985,4.59993,2470.1,2021-5-04T13:40:33Z
2021-05-04T11:42:26Z,42.805,6.029,13.2985,4.59989,2470.087,2021-5-04T13:43:36Z
2021-05-04T11:45:29Z,42.805,6.029,13.2983,4.59988,2470.087,2021-5-04T13:46:39Z
2021-05-04T11:48:32Z,42.805,6.029,13.2983,4.59988,2470.11,2021-5-04T13:49:42Z
2021-05-04T11:51:35Z,42.805,6.029,13.2986,4.59991,2470.119,2021-5-04T13:52:45Z
2021-05-04T11:54:38Z,42.805,6.029,13.2990,4.59989,2470.087,2021-5-04T13:55:49Z
2021-05-04T11:57:42Z,42.805,6.029,13.2985,4.59987,2470.124,2021-5-04T13:58:52Z
2021-05-04T12:00:45Z,42.805,6.029,13.2983,4.59989,2470.124,2021-5-04T14:01:55Z
2021-05-04T12:03:48Z,42.805,6.029,13.2983,4.59988,2470.1,2021-5-04T14:04:58Z
2021-05-04T12:06:51Z,42.805,6.029,13.2983,4.59990,2470.11,2021-5-04T14:08:01Z
2021-05-04T12:09:54Z,42.805,6.029,13.2982,4.59988,2470.124,2021-5-04T14:11:04Z
2021-05-04T12:12:57Z,42.805,6.029,13.2982,4.59988,2470.133,2021-5-04T14:14:07Z
2021-05-04T12:16:00Z,42.805,6.029,13.2984,4.59989,2470.124,2021-5-04T14:17:10Z
2021-05-04T12:19:03Z,42.805,6.029,13.2983,4.59990,2470.124,2021-5-04T14:20:14Z
2021-05-04T12:22:07Z,42.805,6.029,13.2983,4.59991,2470.11,2021-5-04T14:23:17Z
2021-05-04T12:25:10Z,42.805,6.029,13.2986,4.59988,2470.087,2021-5-04T14:26:20Z
2021-05-04T12:28:13Z,42.805,6.029,13.2982,4.59988,2470.087,2021-5-04T14:29:23Z
2021-05-04T12:31:16Z,42.805,6.029,13.2984,4.59988,2470.11,2021-5-04T14:32:26Z
2021-05-04T12:34:19Z,42.805,6.029,13.2979,4.59989,2470.147,2021-5-04T14:35:29Z
2021-05-04T12:37:22Z,42.805,6.029,13.2982,4.59993,2470.087,2021-5-04T14:38:32Z
2021-05-04T12:40:25Z,42.805,6.029,13.2985,4.59988,2470.124,2021-5-04T14:41:35Z
2021-05-04T12:43:28Z,42.805,6.029,13.2987,4.59988,2470.171,2021-5-04T14:44:39Z
2021-05-04T12:46:32Z,42.805,6.029,13.2985,4.59988,2470.133,2021-5-04T14:47:42Z
2021-05-04T12:49:35Z,42.805,6.029,13.2984,4.59990,2470.11,2021-5-04T14:50:45Z
2021-05-04T12:52:38Z,42.805,6.029,13.2983,4.59992,2470.124,2021-5-04T14:53:48Z
2021-05-04T12:55:41Z,42.805,6.029,13.2983,4.59991,2470.124,2021-5-04T14:56:51Z
2021-05-04T12:58:44Z,42.805,6.029,13.2986,4.59992,2470.087,2021-5-04T14:59:54Z
2021-05-04T13:01:47Z,42.805,6.029,13.2986,4.59990,2470.124,2021-5-04T15:02:57Z
2021-05-04T13:04:50Z,42.805,6.029,13.2983,4.59988,2470.124,2021-5-04T15:06:00Z
2021-05-04T13:07:53Z,42.805,6.029,13.2985,4.59991,2470.133,2021-5-04T15:09:04Z
2021-05-04T13:10:56Z,42.805,6.029,13.2985,4.59991,2470.133,2021-5-04T15:12:07Z
2021-05-04T13:14:00Z,42.805,6.029,13.2986,4.59993,2470.133,2021-5-04T15:15:10Z
2021-05-04T13:17:03Z,42.805,6.029,13.2985,4.59990,2470.11,2021-5-04T15:18:13Z
2021-05-04T13:20:06Z,42.805,6.029,13.2983,4.59992,2470.087,2021-5-04T15:21:16Z
2021-05-04T13:23:09Z,42.805,6.029,13.2982,4.59991,2470.11,2021-5-04T15:24:19Z
2021-05-04T13:26:12Z,42.805,6.029,13.2983,4.59994,2470.124,2021-5-04T15:27:22Z
2021-05-04T13:29:15Z,42.805,6.029,13.2984,4.59994,2470.11,2021-5-04T15:30:25Z
2021-05-04T13:32:18Z,42.805,6.029,13.2986,4.59990,2470.11,2021-5-04T15:33:28Z
2021-05-04T13:35:21Z,42.805,6.029,13.2984,4.59990,2470.1,2021-5-04T15:36:32Z
2021-05-04T13:38:25Z,42.805,6.029,13.2988,4.59990,2470.147,2021-5-04T15:39:35Z
2021-05-04T13:41:28Z,42.805,6.029,13.2983,4.59994,2470.11,2021-5-04T15:42:38Z
2021-05-04T13:44:31Z,42.805,6.029,13.2982,4.59992,2470.133,2021-5-04T15:45:41Z
2021-05-04T13:47:34Z,42.805,6.029,13.2984,4.59991,2470.133,2021-5-04T15:48:44Z
2021-05-04T13:50:37Z,42.805,6.029,13.2982,4.59991,2470.1,2021-5-04T15:51:47Z
2021-05-04T13:53:40Z,42.805,6.029,13.2983,4.59990,2470.147,2021-5-04T15:54:50Z
2021-05-04T13:56:43Z,42.805,6.029,13.2983,4.59991,2470.147,2021-5-04T15:57:54Z
2021-05-04T13:59:46Z,42.805,6.029,13.2983,4.59991,2470.124,2021-5-04T16:00:57Z
2021-05-04T14:02:50Z,42.805,6.029,13.2982,4.59988,2470.11,2021-5-04T16:04:00Z
2021-05-04T14:05:53Z,42.805,6.029,13.2988,4.59993,2470.11,2021-5-04T16:07:03Z
2021-05-04T14:08:56Z,42.805,6.029,13.2982,4.59991,2470.11,2021-5-04T16:10:06Z
2021-05-04T14:11:59Z,42.805,6.029,13.2983,4.59991,2470.171,2021-5-04T16:13:09Z
2021-05-04T14:15:02Z,42.805,6.029,13.2982,4.59991,2470.171,2021-5-04T16:16:12Z
2021-05-04T14:18:05Z,42.805,6.029,13.2982,4.59993,2470.171,2021-5-04T16:19:15Z
2021-05-04T14:21:08Z,42.805,6.029,13.2983,4.59991,2470.156,2021-5-04T16:22:18Z
2021-05-04T14:24:11Z,42.805,6.029,13.2986,4.59990,2470.171,2021-5-04T16:25:22Z
2021-05-04T14:27:15Z,42.805,6.029,13.2982,4.59990,2470.147,2021-5-04T16:28:25Z
2021-05-04T14:30:18Z,42.805,6.029,13.2979,4.59990,2470.171,2021-5-04T16:31:28Z
2021-05-04T14:33:21Z,42.805,6.029,13.2983,4.59991,2470.11,2021-5-04T16:34:31Z
2021-05-04T14:36:24Z,42.805,6.029,13.2983,4.59991,2470.124,2021-5-04T16:37:34Z
2021-05-04T14:39:27Z,42.805,6.029,13.2983,4.59991,2470.133,2021-5-04T16:40:37Z
2021-05-04T14:42:30Z,42.805,6.029,13.2979,4.59990,2470.11,2021-5-04T16:43:40Z
2021-05-04T14:45:33Z,42.805,6.029,13.2986,4.59990,2470.161,2021-5-04T16:46:43Z
2021-05-04T14:48:36Z,42.805,6.029,13.2983,4.59991,2470.147,2021-5-04T16:49:47Z
2021-05-04T14:51:40Z,42.805,6.029,13.2983,4.59991,2470.156,2021-5-04T16:52:50Z
2021-05-04T14:54:43Z,42.805,6.029,13.2986,4.59991,2470.073,2021-5-04T16:55:53Z
2021-05-04T14:57:46Z,42.805,6.029,13.2985,4.59989,2470.171,2021-5-04T16:58:56Z
2021-05-04T15:00:49Z,42.805,6.029,13.2984,4.59991,2470.124,2021-5-04T17:01:59Z
2021-05-04T15:03:52Z,42.805,6.029,13.2986,4.59990,2470.147,2021-5-04T17:05:02Z
2021-05-04T15:06:55Z,42.805,6.029,13.2985,4.59989,2470.133,2021-5-04T17:08:05Z
2021-05-04T15:09:58Z,42.805,6.029,13.2985,4.59991,2470.147,2021-5-04T17:11:08Z
2021-05-04T15:13:01Z,42.805,6.029,13.2982,4.59991,2470.133,2021-5-04T17:14:12Z
2021-05-04T15:16:05Z,42.805,6.029,13.2985,4.59991,2470.133,2021-5-04T17:17:15Z
2021-05-04T15:19:08Z,42.805,6.029,13.2985,4.59991,2470.133,2021-5-04T17:20:18Z
2021-05-04T15:22:11Z,42.805,6.029,13.2986,4.59991,2470.133,2021-5-04T17:23:21Z
2021-05-04T15:25:14Z,42.805,6.029,13.2986,4.59990,2470.156,2021-5-04T17:26:24Z
2021-05-04T15:28:17Z,42.805,6.029,13.2986,4.59991,2470.133,2021-5-04T17:29:27Z
2021-05-04T15:31:20Z,42.805,6.029,13.2984,4.59991,2470.133,2021-5-04T17:32:30Z
2021-05-04T15:34:23Z,42.805,6.029,13.2982,4.59989,2470.156,2021-5-04T17:35:33Z